Tracking 19792 objects as of 16-Jul-2019
HD Live streaming from Space Station
objects crossing your sky now

THORAD DELTA 1 DEB


THORAD DELTA 1 DEB is no longer on orbit


NORAD ID: 8302
Int'l Code: 1974-089BK
Perigee: N/A
Apogee: N/A
Inclination: N/A
Period: N/A
Semi major axis: N/A
RCS: N/A
Launch date: November 15, 1974
Source: United States (US)
Launch site: AIR FORCE WESTERN TEST RANGE (AFWTR)
Decay date: 2011-10-24

Note: This is SATELLITE DEBRIS
aabbcc
Your satellite tracking list
Your tracking list is empty




NASA's NSSDC Master Catalog

Two Line Element Set (TLE):
1 08302U 74089BK  11297.35623346  .18755312  00000-0  61438-1 0  9998
2 08302 100.9726 244.9065 0015807 140.5087 221.1240 15.84445662845774
Source of the keplerian elements: AFSPC